User: anonymous   Login
Location: Unspecified
(51.3762°N, 0.0000°E)
Time: 02:51:34
(UTC+00:00)
Language:

nSIGHT-1 - Orbit

View from above orbital plane
View from above orbital plane
View from above satellite
View from above satellite

Ground track
Ground track

The orbit data is extracted from the following two-line orbital elements,

1 42726U 98067MF  19288.79359880  .00032208  00000-0  20205-3 0  9995
2 42726  51.6335  57.5520 0004773 283.5074  76.5394 15.76451582136570
Epoch (UTC): 15 October 2019 19:02:46
Eccentricity: 0.0004773
inclination: 51.6335°
perigee height: 337 km
apogee height: 344 km
right ascension of ascending node: 57.5520°
argument of perigee: 283.5074°
revolutions per day: 15.76451582
mean anomaly at epoch: 76.5394°
orbit number at epoch: 13657

The dashed part of the orbit path shows where the satellite is in the earth's shadow,  

DLR